Flag for U.S.A. Weather past 2 weeks in Inglewood, California, U.S.A.

Now
76 °F

Clear.


Feels Like: 78 °F
Forecast: 71 / 88 °F
Wind: 5 mph from West

Location: Hawthorne Municipal Airport

Current Time: Sep 14, 2014 at 9:55:52 PM

Latest Report: Sep 14, 2014 at 8:53 PM


Visibility: 10 mi

Pressure: 29.72 "Hg

Humidity: 67%

Dew point: 64 °F

Location of InglewoodLocation

Historic Weather in Inglewood — Graph

°F

Inglewood temperature yesterday

Maximum temperature yesterday: 87 °F (at 12:53 PM)
Minimum temperature yesterday: 70 °F (at 3:53 AM)
Average temperature yesterday: 76 °F

Past Weeks' High & Low Weather Summary

 TemperatureHumidityPressure
High91 °F (Sep 14, 11:53 AM)90% (Aug 31, 4:53 AM)29.93 "Hg (Aug 31, 4:53 AM)
Low67 °F (Sep 6, 3:53 AM)31% (Sep 8, 1:53 PM)29.68 "Hg (Sep 13, 6:53 PM)
Average75 °F70%29.81 "Hg
* Reported Aug 30 7:53 PM — Sep 14 7:53 PM, Inglewood, Weather by CustomWeather, © 2014

Note: Actual official high and low records may vary slightly from our data, if they occured in-between our weather recording intervals... More about our weather records

Advertising

Inglewood weather history for previous 24 hours

 ConditionsComfort  
Time TempWeatherWind HumidityBarometerVisibility
7:53 PM
Sep 14
77 °FSunny.9 mph62%29.70 "Hg10 mi
6:53 PM78 °FSunny.9 mph60%29.68 "Hg10 mi
5:53 PM80 °FSunny.9 mph56%29.68 "Hg10 mi
4:53 PM83 °FSunny.9 mph51%29.68 "Hg10 mi
3:53 PM87 °FSunny.8 mph40%29.69 "Hg10 mi
2:53 PM87 °FSunny.9 mph42%29.70 "Hg10 mi
1:53 PM88 °FSunny.10 mph46%29.72 "Hg10 mi
12:53 PM90 °FSunny.10 mph41%29.73 "Hg10 mi
11:53 AM91 °FSunny.6 mph37%29.74 "Hg10 mi
10:53 AM90 °FSunny.5 mph37%29.75 "Hg10 mi
9:53 AM85 °FSunny.No wind51%29.76 "Hg10 mi
8:53 AM79 °FSunny.No wind62%29.76 "Hg10 mi
7:53 AM75 °FSunny.No wind74%29.75 "Hg10 mi
6:53 AM72 °FClear.No wind78%29.74 "Hg10 mi
5:53 AM72 °FClear.No wind81%29.72 "Hg10 mi
4:53 AM72 °FClear.No wind81%29.72 "Hg10 mi
3:53 AM72 °FClear.No wind81%29.71 "Hg10 mi
2:53 AM73 °FClear.No wind79%29.72 "Hg10 mi
1:53 AM73 °FClear.No wind79%29.73 "Hg10 mi
12:53 AM73 °FClear.No wind79%29.72 "Hg10 mi
11:53 PM
Sep 13
72 °FClear.No wind81%29.73 "Hg10 mi
10:53 PM72 °FClear.No wind81%29.72 "Hg10 mi
9:53 PM74 °FClear.5 mph76%29.71 "Hg10 mi
Weather by CustomWeather, © 2014

See weather overviewHow to use our weather pages